When you browse on this site, cookies collect data to enhance your experience and personalize the content and advertising you see.
Visit our Privacy Policy to learn more. By continuing to use the site, you agree to this use of cookies and data.
  • en Suisse
  • Liste des pays
  • À 7 jours
  • Température de l'eau
  • Carte satellitaire
  • Carte météo
  • Widgets météo
  • user-avatar
    Se connecter

    Météo par heure à Malaya Kamenka

    Ce jour, 21 Novembre, Mercredi

    Heure Température Précipitation Vent Pression Humidité
    00:00 -3°C° 0 mm 1 m/s 754 mmHg 90%
    01:00 -3°C° 0 mm 1 m/s 754 mmHg 90%
    02:00 -3°C° 0 mm 1 m/s 754 mmHg 89%
    03:00 -3°C° 0 mm 1 m/s 754 mmHg 89%
    04:00 -3°C° 0 mm 1 m/s 754 mmHg 89%
    05:00 -3°C° 0 mm 1 m/s 754 mmHg 89%
    06:00 -3°C° 0 mm 1 m/s 754 mmHg 88%
    07:00 -3°C° 0 mm 1 m/s 754 mmHg 88%
    08:00 -3°C° 0 mm 1 m/s 754 mmHg 87%
    09:00 -2°C° 0 mm 1 m/s 754 mmHg 83%
    10:00 -2°C° 0 mm 1 m/s 754 mmHg 78%
    11:00 -3°C° 0 mm 2 m/s 754 mmHg 73%
    12:00 -3°C° 0 mm 2 m/s 754 mmHg 72%
    13:00 -2°C° 0 mm 2 m/s 754 mmHg 72%
    14:00 -2°C° 0 mm 2 m/s 754 mmHg 71%
    15:00 -3°C° 0 mm 2 m/s 754 mmHg 75%
    16:00 -3°C° 0 mm 2 m/s 753 mmHg 80%
    17:00 -4°C° 0 mm 2 m/s 753 mmHg 84%
    18:00 -4°C° 0 mm 2 m/s 753 mmHg 84%
    19:00 -4°C° 0 mm 2 m/s 753 mmHg 84%
    20:00 -4°C° 0 mm 2 m/s 753 mmHg 84%
    21:00 -4°C° 0 mm 2 m/s 754 mmHg 83%
    22:00 -4°C° 0 mm 2 m/s 754 mmHg 82%
    23:00 -1°C° 0 mm 1 m/s 754 mmHg 81%

    Demain, 22 Novembre, Jeudi

    Heure Température Précipitation Vent Pression Humidité
    00:00 -2°C° 0 mm 1 m/s 754 mmHg 81%
    01:00 -2°C° 0 mm 1 m/s 754 mmHg 81%
    02:00 -2°C° 0 mm 1 m/s 753 mmHg 81%
    03:00 -2°C° 0 mm 1 m/s 753 mmHg 83%
    04:00 -3°C° 0 mm 1 m/s 753 mmHg 85%
    05:00 -5°C° 0 mm 2 m/s 753 mmHg 86%
    06:00 -5°C° 0 mm 2 m/s 753 mmHg 87%
    07:00 -5°C° 0 mm 2 m/s 753 mmHg 88%
    08:00 -5°C° 0 mm 2 m/s 753 mmHg 89%
    09:00 -4°C° 0 mm 2 m/s 753 mmHg 85%
    10:00 -4°C° 0 mm 2 m/s 753 mmHg 82%
    11:00 -4°C° 0 mm 3 m/s 753 mmHg 78%
    12:00 -2°C° 0 mm 3 m/s 752 mmHg 77%
    13:00 -2°C° 0 mm 3 m/s 752 mmHg 75%
    14:00 -2°C° 0 mm 3 m/s 752 mmHg 74%
    15:00 -2°C° 0 mm 3 m/s 752 mmHg 77%
    16:00 -4°C° 0 mm 3 m/s 751 mmHg 80%
    17:00 -5°C° 0 mm 3 m/s 751 mmHg 84%
    18:00 -5°C° 0 mm 3 m/s 751 mmHg 85%
    19:00 -5°C° 0 mm 3 m/s 751 mmHg 87%
    20:00 -5°C° 0 mm 3 m/s 751 mmHg 88%
    21:00 -5°C° 0 mm 3 m/s 751 mmHg 88%
    22:00 -5°C° 0 mm 3 m/s 751 mmHg 89%
    23:00 -5°C° 0 mm 3 m/s 751 mmHg 89%

    Après-demain, 23 Novembre, Vendredi

    Heure Température Précipitation Vent Pression Humidité
    00:00 -4°C° 0 mm 3 m/s 752 mmHg 88%
    01:00 -4°C° 0 mm 3 m/s 752 mmHg 87%
    02:00 -3°C° 0 mm 2 m/s 752 mmHg 86%
    03:00 -3°C° 0 mm 2 m/s 752 mmHg 87%
    04:00 -3°C° 0 mm 2 m/s 752 mmHg 87%
    05:00 -1°C° 0 mm 1 m/s 752 mmHg 87%
    06:00 0°C° 0 mm 1 m/s 753 mmHg 87%
    07:00 0°C° 0 mm 1 m/s 753 mmHg 88%
    08:00 0°C° 0 mm 1 m/s 753 mmHg 88%
    09:00 0°C° 0 mm 1 m/s 753 mmHg 86%
    10:00 0°C° 0 mm 1 m/s 753 mmHg 84%
    11:00 +1°C° 0 mm 1 m/s 754 mmHg 82%
    12:00 +1°C° 0 mm 1 m/s 754 mmHg 81%
    13:00 +1°C° 0 mm 1 m/s 754 mmHg 80%
    14:00 +1°C° 0 mm 1 m/s 753 mmHg 79%
    15:00 +1°C° 0 mm 1 m/s 753 mmHg 81%
    16:00 0°C° 0 mm 1 m/s 753 mmHg 84%
    17:00 -3°C° 0 mm 2 m/s 753 mmHg 87%
    18:00 -3°C° 0 mm 2 m/s 753 mmHg 87%
    19:00 -4°C° 0 mm 2 m/s 752 mmHg 88%
    20:00 -4°C° 0 mm 2 m/s 752 mmHg 89%
    21:00 -4°C° 0 mm 2 m/s 752 mmHg 89%
    22:00 -5°C° 0 mm 2 m/s 752 mmHg 89%
    23:00 -6°C° 0 mm 3 m/s 751 mmHg 89%

    24 Novembre, Samedi

    Heure Température Précipitation Vent Pression Humidité
    00:00 -6°C° 0 mm 3 m/s 751 mmHg 89%
    01:00 -6°C° 0 mm 3 m/s 751 mmHg 89%
    02:00 -6°C° 0 mm 3 m/s 750 mmHg 90%
    03:00 -6°C° 0 mm 3 m/s 749 mmHg 89%
    04:00 -6°C° 0 mm 3 m/s 749 mmHg 87%
    05:00 -7°C° 0 mm 3 m/s 748 mmHg 86%
    06:00 -6°C° 0 mm 3 m/s 748 mmHg 84%
    07:00 -6°C° 0 mm 3 m/s 747 mmHg 82%
    08:00 -6°C° 0 mm 3 m/s 747 mmHg 80%
    09:00 -5°C° 0 mm 3 m/s 747 mmHg 78%
    10:00 -4°C° 0 mm 3 m/s 746 mmHg 76%
    11:00 -4°C° 0 mm 3 m/s 746 mmHg 74%
    12:00 -2°C° 0 mm 3 m/s 746 mmHg 76%
    13:00 -2°C° 0 mm 3 m/s 745 mmHg 77%
    14:00 -1°C° 0 mm 3 m/s 745 mmHg 79%
    15:00 -2°C° 0 mm 3 m/s 745 mmHg 83%
    16:00 -2°C° 0 mm 3 m/s 744 mmHg 87%
    17:00 -2°C° 0 mm 2 m/s 744 mmHg 91%
    18:00 -2°C° 0 mm 2 m/s 744 mmHg 92%
    19:00 -2°C° 0 mm 2 m/s 744 mmHg 93%
    20:00 -2°C° 0 mm 2 m/s 744 mmHg 94%
    21:00 -2°C° 0 mm 2 m/s 744 mmHg 95%
    22:00 0°C° 0 mm 1 m/s 744 mmHg 96%
    23:00 0°C° 0 mm 1 m/s 744 mmHg 97%

    25 Novembre, Dimanche

    Heure Température Précipitation Vent Pression Humidité
    00:00 +1°C° 0 mm 1 m/s 744 mmHg 97%
    01:00 +1°C° 0 mm 1 m/s 743 mmHg 97%
    02:00 0°C° 0 mm 0 m/s 743 mmHg 97%
    03:00 0°C° 0.1 mm 0 m/s 743 mmHg 97%
    04:00 0°C° 0.1 mm 0 m/s 742 mmHg 97%
    05:00 0°C° 0.1 mm 0 m/s 742 mmHg 97%
    06:00 0°C° 0.3 mm 0 m/s 742 mmHg 97%
    07:00 +1°C° 0.3 mm 1 m/s 742 mmHg 97%
    08:00 +1°C° 0.3 mm 1 m/s 742 mmHg 97%
    09:00 +1°C° 0.4 mm 1 m/s 741 mmHg 97%
    10:00 +1°C° 0.4 mm 1 m/s 741 mmHg 96%
    11:00 +1°C° 0.4 mm 1 m/s 741 mmHg 96%
    12:00 +1°C° 0.3 mm 1 m/s 741 mmHg 96%
    13:00 +2°C° 0.3 mm 1 m/s 741 mmHg 96%
    14:00 +2°C° 0.3 mm 1 m/s 740 mmHg 96%
    15:00 -1°C° 0.2 mm 2 m/s 740 mmHg 96%
    16:00 -1°C° 0.2 mm 2 m/s 740 mmHg 96%
    17:00 -1°C° 0.2 mm 2 m/s 741 mmHg 96%
    18:00 -1°C° 0.2 mm 3 m/s 741 mmHg 95%
    19:00 -1°C° 0.2 mm 3 m/s 741 mmHg 94%
    20:00 -1°C° 0.2 mm 3 m/s 741 mmHg 94%
    21:00 -3°C° 0.2 mm 4 m/s 741 mmHg 92%
    22:00 -3°C° 0.2 mm 4 m/s 742 mmHg 91%
    23:00 -3°C° 0.2 mm 4 m/s 742 mmHg 89%

    26 Novembre, Lundi

    Heure Température Précipitation Vent Pression Humidité
    00:00 -5°C° 0.1 mm 5 m/s 742 mmHg 89%
    01:00 -5°C° 0.1 mm 5 m/s 742 mmHg 88%
    02:00 -6°C° 0.1 mm 5 m/s 743 mmHg 88%
    03:00 -5°C° 0 mm 4 m/s 743 mmHg 87%
    04:00 -7°C° 0 mm 4 m/s 743 mmHg 87%
    05:00 -7°C° 0 mm 4 m/s 744 mmHg 86%
    06:00 -8°C° 0 mm 4 m/s 744 mmHg 86%
    07:00 -7°C° 0 mm 3 m/s 744 mmHg 86%
    08:00 -7°C° 0 mm 3 m/s 745 mmHg 86%
    09:00 -7°C° 0 mm 3 m/s 745 mmHg 83%
    10:00 -6°C° 0 mm 3 m/s 745 mmHg 80%
    11:00 -6°C° 0 mm 3 m/s 746 mmHg 78%
    12:00 -5°C° 0 mm 3 m/s 746 mmHg 78%
    13:00 -5°C° 0 mm 3 m/s 746 mmHg 78%
    14:00 -4°C° 0 mm 2 m/s 746 mmHg 78%
    15:00 -4°C° 0 mm 2 m/s 746 mmHg 81%
    16:00 -5°C° 0 mm 2 m/s 746 mmHg 85%
    17:00 -6°C° 0 mm 2 m/s 746 mmHg 88%
    18:00 -6°C° 0 mm 2 m/s 746 mmHg 89%
    19:00 -6°C° 0 mm 2 m/s 746 mmHg 90%
    20:00 -6°C° 0 mm 2 m/s 747 mmHg 90%
    21:00 -4°C° 0 mm 1 m/s 747 mmHg 91%
    22:00 -4°C° 0 mm 1 m/s 747 mmHg 91%
    23:00 -4°C° 0 mm 1 m/s 747 mmHg 92%
    Voir plus